Back to catalog

STARLINK-1221

AliveCommunicationsVLEO
NORAD 45227·PAYLOAD·🇺🇸 United States

Launched Feb 17, 2020 from Cape Canaveral Space Force Station

Loading…

Next Passes (next 24 hours)

TLE

FreshSource: CelesTrak SupGP

Epoch: Sep 14, 2026, 21:08 UTC

1 45227C 20012BB  26257.88104167  .00026893  00000+0  45748-3 0  2577
2 45227  53.0606  88.0755 0002300 193.1443 303.0847 15.50797917    12

Track STARLINK-1221 in real time with AllMySat

Download on the App Store